Weather History for Fort Rucker / Ozark, AL

Change the Weather History Date:

Tuesday, February 28, 2012

  Actual Average (KDHN) Record (KDHN)
Temperature  
Mean Temperature 65 °F 56 °F  
Max Temperature 73 °F 68 °F 83 °F (1948)
Min Temperature 57 °F 44 °F 23 °F (2002)
Degree Days  
Heating Degree Days 0 10  
Month to date heating degree days 344  
Since 1 July heating degree days 1559  
Growing Degree Days 15 (Base 50)    
Moisture  
Dew Point 60 °F    
Average Humidity 85    
Maximum Humidity 100    
Minimum Humidity 69    
Precipitation  
Precipitation 0.00 in 0.16 in 1.74 in (1966)
Month to date precipitation 4.77  
Year to date precipitation 9.40  
Sea Level Pressure  
Sea Level Pressure 30.26 in    
Wind  
Wind Speed 2 mph (SE)    
Max Wind Speed 9 mph    
Max Gust Speed -    
Visibility 8 miles    
Events      
T = Trace of Precipitation, MM = Missing Value Source: NWS Daily Summary

Daily Weather History Graph

Daily Weather History Graph

Search for Another Location

Airport:

Trip Planner

Search our weather history database for the weather conditions in past years. The results will help you decide how hot, cold, wet, or windy it might be!

Date:

Astronomy

Feb. 28, 2012 Rise Set
Actual Time 6:11 AM CST 5:40 PM CST
Civil Twilight 5:47 AM CST 6:04 PM CST
Nautical Twilight 5:18 AM CST 6:32 PM CST
Astronomical Twilight 4:50 AM CST 7:00 PM CST
Moon 9:46 AM CST (2/28) 11:58 PM CST (2/28)
Length of Visible Light 12h 17m
Length of Day
11h 28m
Waxing Crescent, 38% of the Moon is Illuminated
Feb 28
Waxing Crescent
Feb 29
First Quarter
Mar 8
Full
Mar 14
Last Quarter
Mar 22
New

Hourly Weather History & Observations

Time (CST) Temp. Dew Point Humidity Pressure Visibility Wind Dir Wind Speed Gust Speed Precip Events Conditions
12:53 AM 59.0 °F 57.0 °F 93% 30.30 in 10.0 mi Calm Calm - N/A   Overcast
1:17 AM 59.0 °F 57.2 °F 94% 30.29 in 9.0 mi East 4.6 mph - N/A   Overcast
1:53 AM 59.0 °F 55.9 °F 90% 30.28 in 9.0 mi Calm Calm - N/A   Overcast
2:20 AM 59.0 °F 55.4 °F 88% 30.28 in 9.0 mi Calm Calm - N/A   Overcast
2:53 AM 59.0 °F 55.9 °F 90% 30.27 in 9.0 mi Variable 3.5 mph - N/A   Overcast
3:08 AM 59.0 °F 55.4 °F 88% 30.28 in 9.0 mi Calm Calm - N/A   Overcast
3:53 AM 59.0 °F 55.9 °F 90% 30.27 in 9.0 mi Calm Calm - N/A   Overcast
4:53 AM 59.0 °F 55.9 °F 90% 30.29 in 9.0 mi Calm Calm - N/A   Overcast
5:03 AM 59.0 °F 55.4 °F 88% 30.29 in 8.0 mi Calm Calm - N/A   Overcast
5:53 AM 59.0 °F 55.9 °F 90% 30.28 in 7.0 mi Variable 3.5 mph - N/A   Overcast
6:33 AM 57.2 °F 55.4 °F 94% 30.29 in 2.5 mi ESE 4.6 mph - N/A   Overcast
6:48 AM 57.2 °F 55.4 °F 94% 30.30 in 1.5 mi Calm Calm - N/A   Overcast
6:53 AM 57.9 °F 55.9 °F 93% 30.30 in 1.5 mi Calm Calm - N/A   Overcast
7:17 AM 57.2 °F 55.4 °F 94% 30.30 in 1.5 mi Calm Calm - N/A   Overcast
7:41 AM 57.2 °F 57.2 °F 100% 30.32 in 2.0 mi Calm Calm - N/A   Overcast
7:53 AM 59.0 °F 57.0 °F 93% 30.31 in 1.5 mi Calm Calm - N/A   Overcast
8:53 AM 59.0 °F 57.9 °F 96% 30.32 in 1.5 mi Calm Calm - N/A   Overcast
9:53 AM 60.1 °F 57.9 °F 93% 30.30 in 2.0 mi Calm Calm - N/A   Overcast
10:04 AM 60.8 °F 59.0 °F 94% 30.30 in 5.0 mi Variable 3.5 mph - N/A   Overcast
10:31 AM 62.6 °F 59.0 °F 88% 30.30 in 9.0 mi Calm Calm - N/A   Overcast
10:53 AM 64.0 °F 59.0 °F 84% 30.29 in 10.0 mi East 4.6 mph - N/A   Overcast
11:30 AM 66.2 °F 59.0 °F 78% 30.29 in 10.0 mi SSE 6.9 mph - N/A   Mostly Cloudy
11:53 AM 66.9 °F 60.1 °F 79% 30.27 in 10.0 mi SE 6.9 mph - N/A   Overcast
12:28 PM 69.8 °F 60.8 °F 73% 30.27 in 10.0 mi NE 5.8 mph - N/A   Overcast
12:53 PM 69.1 °F 60.1 °F 73% 30.24 in 10.0 mi ESE 3.5 mph - N/A   Overcast
1:39 PM 71.6 °F 60.8 °F 69% 30.22 in 10.0 mi SE 4.6 mph - N/A   Overcast
1:53 PM 71.1 °F 62.1 °F 73% 30.22 in 10.0 mi Variable 3.5 mph - N/A   Overcast
2:53 PM 71.1 °F 62.1 °F 73% 30.22 in 10.0 mi Calm Calm - N/A   Overcast
3:23 PM 71.6 °F 62.6 °F 73% 30.22 in 10.0 mi Calm Calm - N/A   Overcast
3:53 PM 73.0 °F 63.0 °F 71% 30.20 in 10.0 mi South 3.5 mph - N/A   Overcast
4:53 PM 72.0 °F 63.0 °F 73% 30.20 in 10.0 mi Calm Calm - N/A   Mostly Cloudy
5:28 PM 71.6 °F 62.6 °F 73% 30.22 in 10.0 mi Calm Calm - N/A   Overcast
5:53 PM 70.0 °F 63.0 °F 78% 30.22 in 10.0 mi Calm Calm - N/A   Overcast
6:01 PM 69.8 °F 62.6 °F 78% 30.23 in 10.0 mi Calm Calm - N/A   Overcast
6:28 PM 69.8 °F 62.6 °F 78% 30.22 in 10.0 mi Calm Calm - N/A   Overcast
6:53 PM 69.1 °F 62.1 °F 78% 30.22 in 10.0 mi Variable 3.5 mph - N/A   Overcast
7:14 PM 69.8 °F 62.6 °F 78% 30.23 in 10.0 mi Calm Calm - N/A   Overcast
7:53 PM 69.1 °F 62.1 °F 78% 30.23 in 10.0 mi Calm Calm - N/A   Overcast
8:20 PM 68.0 °F 62.6 °F 83% 30.24 in 10.0 mi Calm Calm - N/A   Mostly Cloudy
8:53 PM 66.0 °F 62.1 °F 87% 30.24 in 10.0 mi Calm Calm - N/A   Overcast
9:03 PM 66.2 °F 62.6 °F 88% 30.24 in 10.0 mi Calm Calm - N/A   Overcast
9:32 PM 66.2 °F 62.6 °F 88% 30.23 in 10.0 mi Calm Calm - N/A   Mostly Cloudy
9:41 PM 66.2 °F 62.6 °F 88% 30.23 in 10.0 mi Calm Calm - N/A   Mostly Cloudy
9:53 PM 66.9 °F 62.1 °F 84% 30.22 in 10.0 mi Calm Calm - N/A   Overcast
10:02 PM 66.2 °F 62.6 °F 88% 30.22 in 10.0 mi Variable 3.5 mph - N/A   Overcast
10:53 PM 66.0 °F 62.1 °F 87% 30.22 in 10.0 mi South 3.5 mph - N/A   Mostly Cloudy
11:37 PM 66.2 °F 62.6 °F 88% 30.21 in 10.0 mi South 8.1 mph - N/A   Overcast
11:53 PM 66.0 °F 63.0 °F 90% 30.20 in 7.0 mi SSW 9.2 mph - N/A   Overcast